7 * 24
多渠道服务支持
STARLINK-36849(NORAD编号68304)是SpaceX星链星座的一颗低轨宽带卫星,隶属于Starlink第二代卫星星座组网进程中的卫星。星链卫星整体采用氩气离子推进系统,配备相控阵天线与光学激光星间链路,单星可支持高速低延迟通信,为全球提供宽带互联网接入服务。2026年SpaceX启动星链轨道调整计划,将包括该星在内的数千颗星链卫星轨道从550公里降至480公里,降低碰撞风险,减少太空碎片隐患,提升近地轨道运行安全性。卫星设计服役周期约4-5年,退役后会主动离轨再入大气层销毁。
美国
(US)
| 数据来源 | 国际轨道数据 |
| 星历时间: | 2026-09-05T11:03:55+0800 8小时前 查看轨道信息 |
| 半长轴: | 6843.55km |
| 偏心率: | 0.0001602 |
| 轨道倾角: | 97.284° |
| 近地点辐角 | 92.226° |
| 升交点赤经 | 13.681° |
| 平近点角 | 267.917° |
| 近地点: | 464.316km |
| 远地点: | 466.51km |
| 周期: | 93.904分钟 |
| 每日圈数: | 15.334889 |